IUS R/B(1), 26882

Orbit data source: Space-Track

IUS R/B(1), 26882 is space debris in HEO originally from a launch on Mon, 06 Aug 2001 UTC launched from the Air Force Eastern Test Range (AFETR). Debris objects in space refer to the collection of defunct objects orbiting the Earth. Examples of debris include non-operational satellites, rocket bodies, and fragments generated from explosions, collisions, or faulty payload assembly.

Loading next visibility...
Identifier
26882, 2001-033C
Orbit
HEO
Country
Flag of USUS
Related business
Manufacturer
PW CSD
Mission
Spacecraft
Bus & Motor
ORBUS 21, ORBUS 21
Mass
1,164 kg wet, 1,164 kg dry
Launch date (UTC)
2001-08-06 (24 years ago)
Launch vehicle
Unknown
Launch site
Air Force Eastern Test Range (AFETR)
Object type
Payload
Rocket body
Debris
Shape & HBR
Cyl, Unknown HBR
Radar Cross Section
8.491 m², Large (>1 m²)

Expand to show TLE details & history
Last TLE update: 1 day ago

TLE from 1 day ago
0 IUS R/B(1)
1 26882U 01033C   25291.18396810  .00008808  00000-0  43134-2 0  9999
2 26882  27.9460 102.7852 7093875 113.5284 332.4469  2.49999001 56470
Epoch: 2025-10-18T04:24Z
TLE epoch observation values (Epoch: 2025-10-18T04:24:54.843Z)
Latitude
-0.00008°
Longitude
9.68902°
Altitude
9,455.907 km
Speed
5.741 km/s
True Right ascension
06h 51m 20s
True Declination
0° 00' 00"
Sunlit
Object was in daylight at epoch
Visualization orbit readout
Latitude
Unknown
Longitude
Unknown
Altitude
Unknown
Speed
Unknown
Apparent Right ascension
Unknown
Apparent Declination
Unknown
Sunlit
N/A
Visualization observer readout
Local Sidereal Time
10:32:48
Azimuth
Unknown
Elevation
Unknown
Doppler factor
Unknown
Orbital elements
Apogee altitude
32,827.945 km
Perigee altitude
287.278 km
Semi-major axis
22,935.749 km
Eccentricity
0.70939
Inclination
27.946°
RAAN
102.7852°
Arg. of periapsis
113.5284°
True anomaly
246.71274°
Mean anomaly
332.4469°
Eccentric anomaly
295.87748°
Mean motion
0.62485 °/min
Orbital period
576.14 mins
BSTAR
0.0043134
Loading maneuver chart data...
Computing Atmospheric mass density...
Loading historical data...
Loading historical data...
Loading historical data...
Loading historical data...
Loading historical data...
Loading historical data...
Loading historical data...
Other satellites on launch #33 in the year 2001 (2001-08-06 UTC)

Documentation

Showing up to 5 results
|